Location: Newark
(42.8481°N, 0.4872°E)
Time: 17:27:59
(UTC+00:00)

A-11 Canister half - Pass Details

Date: 28 October 2020
Orbit: 1525 x 1683 km, 47.3° (Epoch: 22 November)

Event Time Altitude Azimuth Distance (km) Brightness Sun altitude
Rises 16:17:02 0° 263° (W) 4,762 13.3 5.7°
Reaches altitude 10° 16:20:10 10° 266° (W) 3,759 12.7 5.2°
Maximum altitude 16:29:39 71° 350° (N) 1,613 9.2 3.6°
Drops below altitude 10° 16:38:57 10° 74° (ENE) 3,694 10.4 2.0°
Sets 16:42:01 0° 77° (ENE) 4,677 10.8 1.5°
